Regional Weather Roundup
Issued by NWS

Home | Current Version | Previous Version | Graphics & Text | Print | Product List | Glossary On
Versions: 1 2 3 4 5 6 7 8 9 10 11 12 13 14 15 16 17 18 19 20 21 22 23 24 25 26 27 28 29 30 31 32 33 34 35 36 37 38 39 40 41 42 43 44 45 46 47 48 49 50
365
ASUS43 KBIS 180902
RWRND

NORTH DAKOTA REGIONAL WEATHER ROUNDUP
NATIONAL WEATHER SERVICE BISMARCK ND
300 AM CST MON DEC 18 2017

NOTE: "FAIR" INDICATES FEW OR NO CLOUDS BELOW 12,000 FEET WITH NO
SIGNIFICANT WEATHER AND/OR OBSTRUCTIONS TO VISIBILITY.


NDZ001>003-009>011-017-181000-
NORTHWEST NORTH DAKOTA

CITY           SKY/WX    TMP DP  RH WIND       PRES   REMARKS
WILLISTON      CLOUDY    36  22  56 SW10      29.60F
MINOT          CLOUDY    37  24  59 SW14      29.58F
MINOT AFB      CLOUDY    34  24  67 SW8       29.57S
$$

NDZ018>021-031>035-040>046-181000-
SOUTHWEST NORTH DAKOTA

CITY           SKY/WX    TMP DP  RH WIND       PRES   REMARKS
BISMARCK       CLOUDY    29  22  75 SW5       29.69F
DICKINSON      CLOUDY    32  21  64 W14       29.66R
GARRISON         N/A     28  24  85 SW3       29.63R
HETTINGER ARPT PTCLDY    30  20  66 W9        29.73S
$$

NDZ004>008-012>016-024-026-027-054-181000-
NORTHEAST NORTH DAKOTA

CITY           SKY/WX    TMP DP  RH WIND       PRES   REMARKS
GRAND FORKS    CLOUDY    27  25  92 S13       29.64F WCI  16
GRND FRKS AFB  CLOUDY    32  26  78 SW12      29.62F
DEVILS LAKE    CLOUDY    30  24  78 SW12      29.61S
$$

NDZ022-023-025-028>030-036>039-047>053-181000-
SOUTHEAST NORTH DAKOTA

CITY           SKY/WX    TMP DP  RH WIND       PRES   REMARKS
FARGO          CLOUDY    33  30  88 MISG      29.69F
JAMESTOWN      CLOUDY    32  26  78 SW10      29.66F
$$





USA.gov is the U.S. government's official web portal to all federal, state and local government web resources and services.